Detroit, MI

6:25 AM EST on February 22, 2017 (GMT -0500)
Detroit Metro Wayne County

Weather History for KDTW - February, 2011

Change the Weather History Date:

Friday, February 25, 2011

  Actual Average Record
Temperature  
Mean Temperature 25 °F 30 °F  
Max Temperature 32 °F 38 °F 66 °F (1957)
Min Temperature 18 °F 23 °F -2 °F (1900)
Degree Days  
Heating Degree Days 40 35  
Month to date heating degree days 1014 931  
Since 1 July heating degree days 4641 4451  
Cooling Degree Days 0 0  
Month to date cooling degree days 0 0  
Year to date cooling degree days 0 0  
Moisture  
Dew Point 22 °F    
Average Humidity 71    
Maximum Humidity 92    
Minimum Humidity 49    
Precipitation  
Precipitation 0.22 in 0.08 in 0.91 in (1918)
Month to date precipitation 2.71 1.79  
Year to date precipitation 4.24 3.75  
Snow  
Snow 3.30 in 0.40 in 9.30 in (1965)
Month to date snowfall 31.1 9.2  
Since 1 July snowfall 58.3 32.9  
Snow Depth 9.00 in    
Sea Level Pressure  
Sea Level Pressure 29.89 in    
Wind  
Wind Speed 12 mph (North)    
Max Wind Speed 24 mph    
Max Gust Speed 32 mph    
Visibility 5 miles    
Events Snow    
T = Trace of Precipitation, MM = Missing Value Source: NWS Daily Summary

Daily Weather History Graph

Daily Weather History Graph

Search for Another Location

Airport or City:

Trip Planner

Search our weather history database for the weather conditions in past years. The results will help you decide how hot, cold, wet, or windy it might be!

Date:

Astronomy

Feb. 25, 2011 Rise Set
Actual Time 7:15 AM EST 6:18 PM EST
Civil Twilight 6:47 AM EST 6:46 PM EST
Nautical Twilight 6:14 AM EST 7:19 PM EST
Astronomical Twilight 5:42 AM EST 7:51 PM EST
Moon 2:22 AM EST (2/25) 11:32 AM EST (2/25)
Length of Visible Light 11h 59m
Length of Day
11h 02m
Last Quarter, 42% of the Moon is Illuminated
Feb 25
Last Quarter
Mar 4
New
Mar 12
First Quarter
Mar 19
Full
Mar 26
Last Quarter

Hourly Weather History & Observations

Time (EST) Temp. Windchill Dew Point Humidity Pressure Visibility Wind Dir Wind Speed Gust Speed Precip Events Conditions
12:42 AM 30.2 °F 20.8 °F 24.8 °F 80% 29.86 in 8.0 mi ENE 11.5 mph - N/A   Overcast
12:53 AM 30.0 °F 19.1 °F 24.1 °F 79% 29.87 in 7.0 mi ENE 15.0 mph 21.9 mph N/A   Overcast
1:26 AM 30.2 °F 19.3 °F 24.8 °F 80% 29.83 in 6.0 mi ENE 15.0 mph 19.6 mph N/A   Haze
1:53 AM 28.9 °F 19.2 °F 24.1 °F 82% 29.83 in 6.0 mi ENE 11.5 mph 21.9 mph N/A   Haze
2:17 AM 28.4 °F 17.5 °F 24.8 °F 86% 29.80 in 5.0 mi NE 13.8 mph 23.0 mph N/A   Haze
2:49 AM 30.2 °F 19.3 °F 24.8 °F 80% 29.77 in 6.0 mi NE 15.0 mph 23.0 mph N/A   Haze
2:53 AM 30.0 °F 18.3 °F 25.0 °F 82% 29.79 in 6.0 mi NE 17.3 mph 23.0 mph N/A   Haze
3:28 AM 30.2 °F 19.8 °F 26.6 °F 86% 29.77 in 6.0 mi NNE 13.8 mph 23.0 mph N/A   Overcast
3:53 AM 30.0 °F 19.1 °F 25.0 °F 82% 29.81 in 7.0 mi NNE 15.0 mph 21.9 mph N/A   Overcast
4:36 AM 30.2 °F 17.8 °F 24.8 °F 80% 29.76 in 4.0 mi NNE 19.6 mph 27.6 mph N/A Snow Light Snow
4:42 AM 30.2 °F 18.9 °F 24.8 °F 80% 29.76 in 2.0 mi NNE 16.1 mph 27.6 mph 0.00 in Snow Light Snow
4:49 AM 30.2 °F 17.8 °F 26.6 °F 86% 29.76 in 1.2 mi NNE 19.6 mph 26.5 mph 0.00 in Snow Light Snow
4:53 AM 28.9 °F 15.4 °F 26.1 °F 89% 29.77 in 1.2 mi NNE 21.9 mph 31.1 mph 0.00 in Snow Light Snow
4:55 AM 28.4 °F 14.7 °F 26.6 °F 93% 29.75 in 0.8 mi NNE 21.9 mph 31.1 mph 0.00 in Snow Light Snow
5:05 AM 28.4 °F 14.1 °F 26.6 °F 93% 29.75 in 0.5 mi NNE 24.2 mph 32.2 mph 0.00 in Snow Snow
5:15 AM 28.4 °F 15.4 °F 26.6 °F 93% 29.76 in 0.8 mi North 19.6 mph 31.1 mph 0.01 in Snow Light Snow
5:30 AM 26.6 °F 13.1 °F 26.6 °F 100% 29.76 in 1.0 mi NNE 19.6 mph 25.3 mph 0.01 in Snow Light Snow
5:45 AM 26.6 °F 13.8 °F 24.8 °F 93% 29.76 in 1.2 mi NNE 17.3 mph 25.3 mph N/A Snow Light Snow
5:53 AM 27.0 °F 14.7 °F 25.0 °F 92% 29.78 in 1.2 mi NNE 16.1 mph 25.3 mph 0.01 in Snow Light Snow
6:03 AM 26.6 °F 14.3 °F 24.8 °F 93% 29.75 in 0.8 mi NNE 16.1 mph 24.2 mph 0.00 in Snow Light Snow
6:15 AM 26.6 °F 13.4 °F 24.8 °F 93% 29.76 in 0.2 mi North 18.4 mph 24.2 mph 0.00 in Snow Heavy Snow
6:27 AM 26.6 °F 14.3 °F 24.8 °F 93% 29.75 in 0.5 mi NNE 16.1 mph 29.9 mph 0.01 in Snow Snow
6:46 AM 26.6 °F 13.4 °F 24.8 °F 93% 29.77 in 1.0 mi North 18.4 mph 23.0 mph 0.01 in Snow Light Snow
6:53 AM 27.0 °F 15.2 °F 25.0 °F 92% 29.79 in 1.0 mi North 15.0 mph 23.0 mph 0.01 in Snow Light Snow
7:03 AM 26.6 °F 14.7 °F 24.8 °F 93% 29.78 in 1.5 mi North 15.0 mph 25.3 mph 0.00 in Snow Light Snow
7:18 AM 26.6 °F 13.4 °F 24.8 °F 93% 29.79 in 2.0 mi North 18.4 mph - 0.00 in Snow Light Snow
7:27 AM 26.6 °F 14.7 °F 24.8 °F 93% 29.79 in 1.0 mi North 15.0 mph 25.3 mph N/A Snow Light Snow
7:34 AM 26.6 °F 13.8 °F 24.8 °F 93% 29.79 in 0.8 mi North 17.3 mph 26.5 mph 0.00 in Snow Light Snow
7:46 AM 26.6 °F 13.8 °F 24.8 °F 93% 29.79 in 0.5 mi North 17.3 mph 25.3 mph N/A Snow Snow
7:53 AM 26.1 °F 12.7 °F 24.1 °F 92% 29.82 in 0.8 mi North 18.4 mph 26.5 mph 0.00 in Snow Light Snow
8:53 AM 26.1 °F 14.0 °F 24.1 °F 92% 29.86 in 0.8 mi North 15.0 mph 25.3 mph 0.03 in Snow Light Snow
9:15 AM 26.6 °F 14.7 °F 23.0 °F 86% 29.85 in 1.0 mi North 15.0 mph 21.9 mph 0.00 in Snow Light Snow
9:39 AM 26.6 °F 15.7 °F 23.0 °F 86% 29.86 in 3.0 mi North 12.7 mph 23.0 mph 0.00 in Snow Light Snow
9:53 AM 27.0 °F 15.2 °F 21.9 °F 81% 29.89 in 3.0 mi North 15.0 mph 24.2 mph 0.00 in   Overcast
10:53 AM 28.0 °F 15.7 °F 21.0 °F 75% 29.92 in 8.0 mi NNW 17.3 mph 25.3 mph 0.00 in Snow Light Snow
11:07 AM 28.4 °F 16.2 °F 21.2 °F 74% 29.92 in 8.0 mi NNW 17.3 mph 24.2 mph 0.00 in Snow Light Snow
11:50 AM 28.4 °F 16.2 °F 19.4 °F 69% 29.96 in 10.0 mi NNW 17.3 mph - 0.00 in   Overcast
11:53 AM 28.9 °F 16.5 °F 19.0 °F 67% 29.99 in 10.0 mi NNW 18.4 mph 24.2 mph 0.00 in   Mostly Cloudy
12:53 PM 30.0 °F 20.0 °F 17.1 °F 59% 30.02 in 10.0 mi NNW 12.7 mph - N/A   Mostly Cloudy
1:53 PM 32.0 °F 24.8 °F 16.0 °F 52% 30.03 in 10.0 mi NNW 8.1 mph - N/A   Partly Cloudy
2:53 PM 30.9 °F 20.2 °F 15.1 °F 52% 30.08 in 10.0 mi NW 15.0 mph - N/A   Mostly Cloudy
3:53 PM 32.0 °F 24.2 °F 15.1 °F 50% 30.08 in 10.0 mi NNW 9.2 mph - N/A   Mostly Cloudy
4:53 PM 30.9 °F 21.2 °F 14.0 °F 50% 30.12 in 10.0 mi NW 12.7 mph - N/A   Mostly Cloudy
5:53 PM 30.0 °F 23.2 °F 15.1 °F 54% 30.14 in 10.0 mi WNW 6.9 mph - N/A   Mostly Cloudy
6:53 PM 28.9 °F 25.2 °F 15.1 °F 56% 30.16 in 10.0 mi WNW 3.5 mph - N/A   Scattered Clouds
7:53 PM 28.0 °F - 15.1 °F 58% 30.17 in 10.0 mi Calm Calm - N/A   Clear
8:53 PM 19.9 °F 14.9 °F 12.9 °F 74% 30.17 in 10.0 mi SSW 3.5 mph - N/A   Clear
9:53 PM 21.0 °F 13.4 °F 12.9 °F 71% 30.18 in 10.0 mi SSW 5.8 mph - N/A   Partly Cloudy
10:53 PM 19.9 °F 12.1 °F 12.0 °F 71% 30.19 in 10.0 mi SSW 5.8 mph - N/A   Mostly Cloudy
11:53 PM 21.9 °F 14.5 °F 14.0 °F 72% 30.19 in 10.0 mi West 5.8 mph - N/A   Mostly Cloudy